Home   Weather   Plymouth   Past weeks

Flag for United Kingdom Past Weather in Plymouth, England, United Kingdom — Yesterday and Last 2 Weeks

Now
43 °F

Passing clouds.


Feels Like: 41 °F
Forecast: N/A
Wind: 3 mph from East

Location: Exeter Airport

Current Time: Jan 17, 2017 at 7:41:03 pm

Latest Report: Jan 17, 2017 at 7:20 pm


Visibility: 4 mi

Pressure: 30.60 "Hg

Humidity: 100%

Dew Point: 43 °F

Location of PlymouthLocation

Past Weather in Plymouth — Graph

°F

Plymouth Temperature Yesterday

Maximum temperature yesterday: 52 °F (at 3:20 pm)
Minimum temperature yesterday: 46 °F (at 9:50 pm)
Average temperature yesterday: 49 °F

High & Low Weather Summary for the Past Weeks

 TemperatureHumidityPressure
High54 °F (Jan 7, 12:20 pm)100% (Jan 2, 10:20 pm)30.60 "Hg (Jan 2, 10:20 pm)
Low21 °F (Jan 3, 6:50 am)57% (Jan 13, 1:20 pm)29.45 "Hg (Jan 12, 2:20 pm)
Average44 °F86%30.26 "Hg
* Reported Jan 2 6:20 pm — Jan 17 6:50 pm, Plymouth, Weather by CustomWeather, © 2017

Note: Actual official high and low records may vary slightly from our data, if they occured in-between our weather recording intervals... More about our weather records

Advertising

Plymouth Weather History for the Previous 24 Hours

Scroll right to see more
 ConditionsComfort  
Time TempWeatherWind HumidityBarometerVisibility
6:50 pm
Tue, Jan 17
43 °FPassing clouds.3 mph93%30.60 "Hg5 mi
6:20 pm43 °FPartly cloudy.3 mph93%30.60 "Hg4 mi
5:50 pm43 °FPassing clouds.3 mph93%30.60 "Hg4 mi
5:20 pm43 °FPassing clouds.5 mph93%30.57 "Hg4 mi
4:50 pm43 °FPassing clouds.5 mph93%30.57 "Hg4 mi
4:20 pm43 °FPartly sunny.3 mph100%30.57 "Hg5 mi
3:50 pm43 °FBroken clouds.5 mph100%30.57 "Hg4 mi
3:20 pm43 °FBroken clouds.6 mph100%30.57 "Hg4 mi
2:50 pm45 °FBroken clouds.6 mph93%30.57 "Hg4 mi
2:20 pm43 °FBroken clouds.6 mph100%30.57 "Hg4 mi
1:50 pm43 °FDrizzle. Fog.7 mph100%30.57 "Hg2 mi
1:20 pm43 °FDrizzle. Fog.5 mph100%30.57 "Hg1 mi
12:50 pm43 °FDrizzle. Broken clouds.5 mph100%30.57 "Hg1 mi
12:20 pm43 °FDrizzle. Fog.2 mph100%30.57 "Hg2 mi
11:50 am43 °FDrizzle. Fog.3 mph100%30.57 "Hg2 mi
11:20 am43 °FDrizzle. Fog.5 mph100%30.57 "Hg2 mi
10:50 am43 °FDrizzle. Fog.7 mph100%30.57 "Hg2 mi
10:20 am45 °FDrizzle. Fog.6 mph93%30.54 "Hg2 mi
9:50 am45 °FPartly sunny.3 mph93%30.54 "Hg5 mi
9:20 am43 °FPartly sunny.5 mph100%30.54 "Hg5 mi
8:50 am43 °FPartly sunny.5 mph100%30.54 "Hg6 mi
8:20 am43 °FDrizzle. Fog.5 mph100%30.54 "Hg3 mi
7:50 am43 °FPartly cloudy.6 mph100%30.51 "Hg4 mi
7:20 am43 °FPassing clouds.5 mph100%30.51 "Hg4 mi
6:50 am45 °FPartly cloudy.7 mph93%30.51 "Hg4 mi
6:20 am45 °FPartly cloudy.8 mph93%30.48 "Hg4 mi
5:50 am45 °FPassing clouds.6 mph93%30.48 "Hg4 mi
5:20 am45 °FPassing clouds.5 mph93%30.48 "Hg5 mi
1:50 am45 °FPartly cloudy.7 mph100%30.45 "Hg3 mi
1:20 am45 °FPassing clouds.8 mph100%30.45 "Hg3 mi
12:50 am46 °FPartly cloudy.8 mph93%30.45 "Hg2 mi
12:20 am46 °FPartly cloudy.No wind93%30.45 "Hg5 mi
11:50 pm
Mon, Jan 16
46 °FPartly cloudy.No wind93%30.42 "HgN/A
11:20 pm46 °FPassing clouds.3 mph93%30.42 "HgN/A
10:50 pm46 °FPartly cloudy.3 mph93%30.42 "HgN/A
10:20 pm46 °FPassing clouds.3 mph93%30.42 "HgN/A
9:50 pm46 °FPassing clouds.5 mph93%30.42 "HgN/A
9:20 pm48 °FPartly cloudy.2 mph87%30.42 "HgN/A
8:50 pm48 °FPassing clouds.5 mph87%30.39 "HgN/A
8:20 pm48 °FPassing clouds.3 mph87%30.39 "HgN/A
7:50 pm48 °FPassing clouds.3 mph87%30.39 "HgN/A
7:20 pm48 °FPassing clouds.5 mph87%30.39 "HgN/A
Weather by CustomWeather, © 2017

See weather overviewHow to use our weather pages